CW4279 Weather Reports


Display with metric or nautical units.
time (UTC)temp
F
wind
direction
speed
MPH
gust
MPH
rain 1hr
in
rain 24hr
in
rain mn
in
humidity
%
barometer
mb
20260506215705 43 152 2.0 6.0 0.00 0.00 0.00 51 1013.2
20260506215201 43 287 1.0 2.0 0.00 0.00 0.00 50 1013.1
20260506214657 43 356 2.0 7.0 0.00 0.00 0.00 50 1013.5
20260506214155 44 134 1.0 2.0 0.00 0.00 0.00 51 1013.3
20260506213654 44 70 1.0 3.0 0.00 0.00 0.00 50 1013.4
20260506213150 44 245 1.0 2.0 0.00 0.00 0.00 50 1013.4
20260506212647 44 107 0.0 2.0 0.00 0.00 0.00 50 1013.3
20260506212142 44 139 2.0 3.0 0.00 0.00 0.00 50 1013.6
20260506211638 44 225 1.0 5.0 0.00 0.00 0.00 49 1013.5
20260506211135 44 191 1.0 2.0 0.00 0.00 0.00 49 1013.4
20260506210632 44 155 1.0 2.0 0.00 0.00 0.00 50 1013.6
20260506210129 44 145 1.0 2.0 0.00 0.00 0.00 49 1013.3
20260506205626 44 84 1.0 2.0 0.00 0.00 0.00 49 1013.7
20260506205120 44 347 2.0 5.0 0.00 0.00 0.00 49 1013.4
20260506204618 44 144 1.0 2.0 0.00 0.00 0.00 48 1013.6
20260506204115 44 239 3.0 3.0 0.00 0.00 0.00 49 1013.5
20260506203614 44 112 3.0 3.0 0.00 0.00 0.00 48 1013.6
20260506203110 43 72 3.0 5.0 0.00 0.00 0.00 49 1013.5
20260506202608 44 152 1.0 3.0 0.00 0.00 0.00 49 1013.6
20260506202104 44 150 1.0 5.0 0.00 0.00 0.00 49 1013.5
20260506201601 44 87 2.0 3.0 0.00 0.00 0.00 49 1013.6
20260506201058 43 82 2.0 3.0 0.00 0.00 0.00 51 1013.7
20260506200554 44 133 0.0 3.0 0.00 0.00 0.00 49 1013.7
20260506200051 44 205 3.0 5.0 0.00 0.00 0.00 48 1013.7
20260506195547 43 134 0.0 5.0 0.00 0.00 0.00 50 1013.5
20260506195044 44 280 3.0 5.0 0.00 0.00 0.00 50 1013.6
20260506194542 43 77 0.0 3.0 0.00 0.00 0.00 50 1013.7
20260506194037 43 294 2.0 3.0 0.00 0.00 0.00 50 1013.8
20260506193535 43 254 2.0 3.0 0.00 0.00 0.00 50 1014.0
20260506193032 43 96 2.0 5.0 0.00 0.00 0.00 50 1013.8
20260506192529 44 77 1.0 3.0 0.00 0.00 0.00 49 1014.0
20260506192025 43 75 3.0 6.0 0.00 0.00 0.00 49 1013.8
20260506191522 43 112 1.0 3.0 0.00 0.00 0.00 51 1013.7
20260506191018 43 167 1.0 2.0 0.00 0.00 0.00 50 1013.7
20260506190515 43 158 2.0 5.0 0.00 0.00 0.00 49 1013.7
20260506190012 43 100 1.0 2.0 0.00 0.00 0.00 50 1013.5
20260506185509 42 157 1.0 3.0 0.00 0.00 0.00 52 1013.7
20260506185006 44 167 1.0 3.0 0.00 0.00 0.00 49 1013.9
20260506184503 43 247 1.0 2.0 0.00 0.00 0.00 50 1013.6
20260506184000 42 276 2.0 5.0 0.00 0.00 0.00 50 1014.0
20260506183456 42 158 2.0 2.0 0.00 0.00 0.00 52 1013.8
20260506182953 42 218 3.0 6.0 0.00 0.00 0.00 51 1013.9
20260506182450 42 122 2.0 5.0 0.00 0.00 0.00 51 1014.0
20260506181947 42 251 3.0 3.0 0.00 0.00 0.00 52 1013.9
20260506181445 42 303 2.0 6.0 0.00 0.00 0.00 53 1013.8
20260506180942 42 105 0.0 6.0 0.00 0.00 0.00 52 1013.9
20260506180438 42 99 4.0 6.0 0.00 0.00 0.00 52 1014.0
20260506175935 42 196 2.0 7.0 0.00 0.00 0.00 52 1013.8
20260506175432 43 124 1.0 2.0 0.00 0.00 0.00 51 1013.8
20260506174928 42 99 1.0 5.0 0.00 0.00 0.00 54 1014.0
20260506174427 42 51 2.0 3.0 0.00 0.00 0.00 53 1013.9
20260506173923 41 59 2.0 2.0 0.00 0.00 0.00 54 1014.1
20260506173420 41 177 1.0 3.0 0.00 0.00 0.00 54 1014.0
20260506172917 42 50 2.0 5.0 0.00 0.00 0.00 53 1014.0
20260506172414 41 260 2.0 7.0 0.00 0.00 0.00 54 1014.2
20260506171911 42 122 2.0 3.0 0.00 0.00 0.00 54 1014.1
20260506171408 41 143 1.0 5.0 0.00 0.00 0.00 55 1014.2
20260506170906 41 253 3.0 5.0 0.00 0.00 0.00 54 1014.2
20260506170401 42 107 1.0 2.0 0.00 0.00 0.00 55 1014.2
20260506165855 41 176 1.0 3.0 0.00 0.00 0.00 56 1014.2
20260506165353 41 100 1.0 3.0 0.00 0.00 0.00 56 1014.3
20260506164849 41 148 1.0 2.0 0.00 0.00 0.00 57 1014.2
20260506164345 40 235 1.0 5.0 0.00 0.00 0.00 57 1014.2
20260506163844 40 86 1.0 3.0 0.00 0.00 0.00 56 1014.2
20260506163338 40 330 4.0 6.0 0.00 0.00 0.00 57 1014.3
20260506162833 40 21 4.0 5.0 0.00 0.00 0.00 57 1014.0
20260506162331 40 76 1.0 5.0 0.00 0.00 0.00 57 1014.3
20260506161828 40 14 3.0 5.0 0.00 0.00 0.00 57 1014.0
20260506161325 41 342 3.0 5.0 0.00 0.00 0.00 57 1014.0
20260506160818 40 76 1.0 2.0 0.00 0.00 0.00 57 1014.1
20260506160314 40 174 2.0 3.0 0.00 0.00 0.00 58 1014.1
20260506155813 40 105 1.0 3.0 0.00 0.00 0.00 58 1014.2
20260506155309 39 182 3.0 3.0 0.00 0.00 0.00 58 1014.3
20260506153421 39 356 2.0 3.0 0.00 0.00 0.00 58 1013.9
20260506152919 39 147 1.0 2.0 0.00 0.00 0.00 59 1014.2
20260506152415 39 186 1.0 3.0 0.00 0.00 0.00 58 1014.1
20260506151915 39 128 0.0 2.0 0.00 0.00 0.00 58 1014.1
20260506151411 39 84 1.0 3.0 0.00 0.00 0.00 59 1014.1
20260506150909 39 136 2.0 2.0 0.00 0.00 0.00 58 1014.3
20260506150404 39 90 1.0 3.0 0.00 0.00 0.00 58 1014.3
20260506145901 39 93 1.0 1.0 0.00 0.00 0.00 59 1014.0
20260506145358 39 102 1.0 2.0 0.00 0.00 0.00 58 1014.0
20260506144855 39 193 1.0 2.0 0.00 0.00 0.00 58 1014.0
20260506144351 39 91 1.0 2.0 0.00 0.00 0.00 58 1014.0
20260506143850 39 110 0.0 2.0 0.00 0.00 0.00 59 1014.1
20260506143347 39 138 0.0 1.0 0.00 0.00 0.00 58 1014.0
20260506142845 39 103 0.0 1.0 0.00 0.00 0.00 59 1014.0
20260506142343 39 126 0.0 2.0 0.00 0.00 0.00 58 1013.9
20260506141841 39 65 2.0 2.0 0.00 0.00 0.00 58 1014.0
20260506141339 39 134 1.0 2.0 0.00 0.00 0.00 59 1013.9
20260506140836 39 231 1.0 3.0 0.00 0.00 0.00 59 1013.8
20260506140333 39 87 1.0 3.0 0.00 0.00 0.00 59 1014.0
20260506135830 39 107 0.0 3.0 0.00 0.00 0.00 59 1013.8
20260506135327 39 96 1.0 2.0 0.00 0.00 0.00 59 1013.7
20260506134823 39 104 0.0 2.0 0.00 0.00 0.00 59 1013.9
20260506134319 39 73 3.0 3.0 0.00 0.00 0.00 59 1013.9
20260506133817 38 66 2.0 3.0 0.00 0.00 0.00 60 1013.4
20260506133313 38 148 0.0 3.0 0.00 0.00 0.00 59 1013.6
20260506132810 38 29 3.0 3.0 0.00 0.00 0.00 60 1013.5
20260506132307 38 108 0.0 2.0 0.00 0.00 0.00 60 1013.6
20260506131805 38 85 1.0 2.0 0.00 0.00 0.00 62 1013.4
20260506131301 38 102 1.0 2.0 0.00 0.00 0.00 61 1013.6
20260506130758 38 106 1.0 2.0 0.00 0.00 0.00 61 1013.4
20260506130255 38 109 0.0 1.0 0.00 0.00 0.00 63 1013.5
20260506125753 38 97 1.0 2.0 0.00 0.00 0.00 63 1013.5
20260506125251 38 130 0.0 1.0 0.00 0.00 0.00 63 1013.5
20260506124749 38 118 1.0 1.0 0.00 0.00 0.00 62 1013.5
20260506124246 37 129 0.0 1.0 0.00 0.00 0.00 65 1013.4
20260506123743 37 110 0.0 1.0 0.00 0.00 0.00 65 1013.4
20260506123242 37 98 1.0 1.0 0.00 0.00 0.00 64 1013.3
20260506122738 37 106 0.0 1.0 0.00 0.00 0.00 65 1013.0
20260506122235 37 112 0.0 0.0 0.00 0.00 0.00 65 1013.1
20260506121734 37 114 0.0 1.0 0.00 0.00 0.00 66 1013.0
20260506121230 36 116 0.0 0.0 0.00 0.00 0.00 66 1013.0
20260506120727 36 119 0.0 1.0 0.00 0.00 0.00 67 1013.0
20260506120225 36 117 0.0 0.0 0.00 0.00 0.00 72 1012.9
20260506115723 36 117 0.0 0.0 0.00 0.00 0.00 73 1012.7
20260506115221 35 118 0.0 0.0 0.00 0.00 0.00 76 1012.9
20260506114718 35 118 0.0 0.0 0.00 0.00 0.00 76 1012.5
20260506114216 35 118 0.0 0.0 0.00 0.00 0.00 77 1012.9
20260506113714 35 119 0.0 0.0 0.00 0.00 0.00 76 1012.6
20260506113211 35 119 0.0 0.0 0.00 0.00 0.00 75 1012.4
20260506112707 34 119 0.0 0.0 0.00 0.00 0.00 76 1012.5
20260506112205 34 119 0.0 0.0 0.00 0.00 0.00 78 1012.5
20260506111702 34 119 0.0 0.0 0.00 0.00 0.00 79 1012.5
20260506111200 34 119 0.0 0.0 0.00 0.00 0.00 78 1012.4
20260506110657 34 119 0.0 0.0 0.00 0.00 0.00 77 1012.4
20260506110155 34 119 0.0 0.0 0.00 0.00 0.00 77 1012.3
20260506105651 34 119 0.0 1.0 0.00 0.00 0.00 77 1012.1
20260506105148 34 114 0.0 0.0 0.00 0.00 0.00 77 1012.0
20260506104646 34 114 0.0 0.0 0.00 0.00 0.00 77 1011.8
20260506104143 34 137 0.0 0.0 0.00 0.00 0.00 77 1012.0
20260506103640 34 137 0.0 0.0 0.00 0.00 0.00 78 1011.8
20260506103137 34 137 0.0 0.0 0.00 0.00 0.00 77 1012.1
20260506102635 34 137 0.0 0.0 0.00 0.00 0.00 78 1011.9
20260506102133 34 137 0.0 0.0 0.00 0.00 0.00 77 1011.9
20260506101629 34 137 0.0 0.0 0.00 0.00 0.00 77 1012.1
20260506101126 34 137 0.0 0.0 0.00 0.00 0.00 77 1012.1
20260506100625 34 137 0.0 0.0 0.00 0.00 0.00 77 1012.1
20260506100122 34 137 0.0 0.0 0.00 0.00 0.00 77 1012.3
20260506095621 34 137 0.0 0.0 0.00 0.00 0.00 76 1012.1
20260506095117 34 137 0.0 0.0 0.00 0.00 0.00 76 1012.1
20260506094615 34 137 0.0 0.0 0.00 0.00 0.00 76 1012.1
20260506094112 34 137 0.0 0.0 0.00 0.00 0.00 76 1011.8
20260506093610 34 137 0.0 0.0 0.00 0.00 0.00 75 1011.9
20260506093107 34 137 0.0 0.0 0.00 0.00 0.00 75 1011.9
20260506092605 34 137 0.0 0.0 0.00 0.00 0.00 75 1011.9
20260506092102 35 137 0.0 0.0 0.00 0.00 0.00 74 1012.0
20260506091600 35 137 0.0 0.0 0.00 0.00 0.00 75 1011.8
20260506091057 35 137 0.0 0.0 0.00 0.00 0.00 75 1011.7
20260506090555 35 137 0.0 0.0 0.00 0.00 0.00 74 1011.9
20260506090051 35 137 0.0 0.0 0.00 0.00 0.00 74 1011.8
20260506085548 35 137 0.0 0.0 0.00 0.00 0.00 74 1011.6
20260506085044 35 137 0.0 0.0 0.00 0.00 0.00 74 1011.8
20260506084541 35 137 0.0 0.0 0.00 0.00 0.00 70 1011.6
20260506084037 35 137 0.0 0.0 0.00 0.00 0.00 69 1011.6
20260506083535 35 137 0.0 0.0 0.00 0.00 0.00 69 1011.7
20260506083032 35 137 0.0 0.0 0.00 0.00 0.00 68 1011.9
20260506082529 35 137 0.0 1.0 0.00 0.00 0.00 68 1011.6
20260506082025 35 137 0.0 0.0 0.00 0.00 0.00 69 1011.6
20260506081523 35 137 0.0 0.0 0.00 0.00 0.00 68 1011.5
20260506081020 35 137 0.0 0.0 0.00 0.00 0.00 68 1011.6
20260506080517 35 137 0.0 0.0 0.00 0.00 0.00 68 1011.4
20260506073501 36 136 0.0 0.0 0.00 0.00 0.00 67 1011.5
20260506072958 35 160 1.0 2.0 0.00 0.00 0.00 67 1011.6
20260506072455 35 123 0.0 0.0 0.00 0.00 0.00 70 1011.4
20260506071953 35 126 0.0 0.0 0.00 0.00 0.00 69 1011.4
20260506071451 35 117 0.0 1.0 0.00 0.00 0.00 71 1011.7
20260506070947 35 136 0.0 0.0 0.00 0.00 0.00 69 1011.5
20260506070444 35 120 0.0 1.0 0.00 0.00 0.00 71 1011.3
20260506062422 32 104 0.0 0.0 0.00 0.00 0.00 74 1011.6
20260506061918 31 104 0.0 0.0 0.00 0.00 0.00 73 1011.6
20260506061415 31 104 0.0 0.0 0.00 0.00 0.00 73 1011.8
20260506060913 31 104 0.0 0.0 0.00 0.00 0.00 75 1011.7
20260506060410 30 104 0.0 0.0 0.00 0.00 0.00 75 1011.5
20260506051342 33 91 0.0 1.0 0.00 0.00 0.00 70 1011.6
20260506050840 33 91 0.0 1.0 0.00 0.00 0.00 69 1011.4
20260506050337 33 91 1.0 2.0 0.00 0.00 0.00 70 1011.6
20260506044827 34 92 0.0 1.0 0.00 0.00 0.00 69 1011.4
20260506044325 34 92 1.0 2.0 0.00 0.00 0.00 69 1011.2
20260506043822 34 92 0.0 1.0 0.00 0.00 0.00 68 1011.2
20260506043320 34 91 0.0 2.0 0.00 0.00 0.00 68 1011.3
20260506042818 34 95 0.0 1.0 0.00 0.00 0.00 68 1011.1
20260506042317 34 95 1.0 1.0 0.00 0.00 0.00 68 1011.1
20260506041815 35 95 1.0 1.0 0.00 0.00 0.00 68 1011.2
20260506041311 35 95 1.0 2.0 0.00 0.00 0.00 67 1011.1
20260506040809 35 95 1.0 2.0 0.00 0.00 0.00 66 1011.0
20260506040306 35 96 1.0 1.0 0.00 0.00 0.00 66 1011.1
20260506035802 36 97 1.0 1.0 0.00 0.00 0.00 64 1010.9
20260506035259 36 97 1.0 1.0 0.00 0.00 0.00 64 1011.0
20260506034756 37 92 1.0 2.0 0.00 0.00 0.00 63 1010.9
20260506034254 37 99 0.0 1.0 0.00 0.00 0.00 61 1010.8
20260506033750 38 103 1.0 2.0 0.00 0.00 0.00 62 1010.7
20260506033247 38 99 1.0 3.0 0.00 0.00 0.00 59 1010.9
20260506032744 39 101 1.0 3.0 0.00 0.00 0.00 61 1010.7
20260506032241 39 119 1.0 3.0 0.00 0.00 0.00 59 1010.8
20260506031738 39 100 1.0 3.0 0.00 0.00 0.00 61 1010.8
20260506031235 40 31 2.0 3.0 0.00 0.00 0.00 59 1010.8
20260506030734 40 101 0.0 2.0 0.00 0.00 0.00 59 1010.7
20260506030231 40 46 3.0 5.0 0.00 0.00 0.00 57 1010.7
20260506025727 41 89 1.0 2.0 0.00 0.00 0.00 58 1010.5
20260506025224 41 111 1.0 3.0 0.00 0.00 0.00 57 1010.7
20260506024721 41 6 2.0 6.0 0.00 0.00 0.00 56 1010.7
20260506024217 41 112 1.0 3.0 0.00 0.00 0.00 57 1010.2
20260506023714 41 65 3.0 3.0 0.00 0.00 0.00 58 1010.5
20260506023211 41 102 1.0 3.0 0.00 0.00 0.00 58 1010.5
20260506022708 41 179 1.0 1.0 0.00 0.00 0.00 57 1010.2
20260506022206 42 99 0.0 2.0 0.00 0.00 0.00 57 1010.1
20260506021703 42 115 3.0 5.0 0.00 0.00 0.00 55 1010.3
20260506021200 42 107 0.0 2.0 0.00 0.00 0.00 56 1010.0
20260506020657 42 115 2.0 5.0 0.00 0.00 0.00 56 1009.9
20260506020155 42 112 0.0 3.0 0.00 0.00 0.00 56 1009.9
20260506015652 42 114 0.0 2.0 0.00 0.00 0.00 56 1010.0
20260506015150 42 82 1.0 2.0 0.00 0.00 0.00 55 1009.7
20260506014647 42 102 2.0 2.0 0.00 0.00 0.00 55 1009.5
20260506014142 42 70 2.0 2.0 0.00 0.00 0.00 55 1009.5
20260506013640 42 112 0.0 1.0 0.00 0.00 0.00 56 1009.4
20260506013137 42 104 0.0 2.0 0.00 0.00 0.00 55 1009.3
20260506012633 42 108 0.0 3.0 0.00 0.00 0.00 55 1009.2
20260506012130 42 94 1.0 2.0 0.00 0.00 0.00 53 1009.4
20260506011628 43 107 1.0 3.0 0.00 0.00 0.00 51 1009.2
20260506011123 43 94 1.0 2.0 0.00 0.00 0.00 52 1009.4
20260506010623 43 87 2.0 3.0 0.00 0.00 0.00 51 1009.1
20260506010119 44 257 3.0 5.0 0.00 0.00 0.00 51 1009.1
20260506005616 44 49 4.0 5.0 0.00 0.00 0.00 51 1008.7
20260506005112 44 56 2.0 2.0 0.00 0.00 0.00 51 1008.9
20260506004609 45 65 0.0 2.0 0.00 0.00 0.00 48 1008.9
20260506004106 45 77 2.0 5.0 0.00 0.00 0.00 49 1008.6
20260506003603 45 83 3.0 5.0 0.00 0.00 0.00 47 1008.5
20260506003059 45 72 5.0 7.0 0.00 0.00 0.00 46 1008.7
20260506002555 46 47 3.0 7.0 0.00 0.00 0.00 46 1008.5
20260506002051 46 54 1.0 7.0 0.00 0.00 0.00 47 1008.7
20260506001547 46 52 2.0 5.0 0.00 0.00 0.00 46 1008.3
20260506001045 46 50 3.0 6.0 0.00 0.00 0.00 46 1008.5
20260506000542 46 175 1.0 2.0 0.00 0.00 0.00 47 1008.5
20260506000039 46 91 0.0 2.0 0.00 0.00 0.00 47 1008.5
20260505235537 46 143 2.0 6.0 0.00 0.00 0.00 46 1008.4
20260505235034 47 21 2.0 7.0 0.00 0.00 0.00 46 1008.5
20260505234531 47 81 2.0 5.0 0.00 0.00 0.00 45 1008.2
20260505234027 47 291 2.0 5.0 0.00 0.00 0.00 45 1008.1
20260505233525 47 107 0.0 3.0 0.00 0.00 0.00 45 1008.2
20260505233022 48 233 5.0 9.0 0.00 0.00 0.00 43 1008.0
20260505232520 48 85 2.0 3.0 0.00 0.00 0.00 42 1007.9
20260505232017 48 70 2.0 3.0 0.00 0.00 0.00 45 1008.0
20260505231514 48 96 2.0 3.0 0.00 0.00 0.00 43 1007.9
20260505231013 48 61 1.0 10.0 0.00 0.00 0.00 44 1008.0
20260505230510 48 254 3.0 9.0 0.00 0.00 0.00 43 1008.0
20260505230007 49 57 1.0 5.0 0.00 0.00 0.00 43 1008.1
20260505225504 48 155 2.0 6.0 0.00 0.00 0.00 44 1008.1
20260505224959 48 72 1.0 6.0 0.00 0.00 0.00 44 1007.9
20260505224456 49 122 2.0 6.0 0.00 0.00 0.00 43 1007.8
20260505223953 51 68 1.0 5.0 0.00 0.00 0.00 40 1008.0
20260505223450 51 190 3.0 6.0 0.00 0.00 0.00 39 1007.9
20260505222947 51 199 3.0 5.0 0.00 0.00 0.00 39 1007.9
20260505222443 51 280 2.0 10.0 0.00 0.00 0.00 38 1007.9
20260505221939 51 154 1.0 3.0 0.00 0.00 0.00 39 1007.7
20260505221436 51 304 3.0 7.0 0.00 0.00 0.00 39 1008.1
20260505220933 48 172 1.0 6.0 0.00 0.00 0.00 43 1007.7
20260505220430 48 324 5.0 7.0 0.00 0.00 0.00 43 1007.8
20260505215928 48 82 3.0 3.0 0.00 0.00 0.00 42 1008.1